Regional Weather Roundup
Issued by NWS

Home | Current Version | Previous Version | Graphics & Text | Print | Product List | Glossary On
Versions: 1 2 3 4 5 6 7 8 9 10 11 12 13 14 15 16 17 18 19 20 21 22 23 24 25 26 27 28 29 30 31 32 33 34 35 36 37 38 39 40 41 42 43 44 45 46 47 48 49 50
000
ASUS43 KIND 231409
RWRIN

WEATHER ROUNDUP FOR INDIANA
NATIONAL WEATHER SERVICE INDIANAPOLIS IN
1000 AM EDT TUE SEP 23 2014

NOTE: "FAIR" INDICATES FEW OR NO CLOUDS BELOW 12,000 FEET WITH NO
SIGNIFICANT WEATHER AND/OR OBSTRUCTIONS TO VISIBILITY.

* - STATION DOES NOT REPORT WEATHER SUCH AS PRECIPITATION OR FOG.

+ - STATION NOT QUALITY CONTROLLED BY THE NATIONAL WEATHER SERVICE.
    USE DATA WITH CAUTION...ESPECIALLY DEWPOINT AND RELATIVE
    HUMIDITY OBSERVATIONS.

INZ001>003-010>013-019-020-231500-
NORTHWEST INDIANA

CITY           SKY/WX    TMP DP  RH WIND       PRES   REMARKS
GARY /AIRPORT/ SUNNY     57  46  67 S5        30.35S
KNOX *+        SUNNY     53  48  83 S3        30.35S
LA PORTE +     SUNNY     53  49  85 SW3       30.36S
MICHIGAN CITY+ SUNNY     57  46  67 SW3       30.35S
MONTICELLO +   SUNNY     55  49  80 CALM      30.35S
RENSSELAER +   SUNNY     54  52  94 CALM      30.36R
VALPARAISO     SUNNY     54  48  80 S3        30.36R

$$

LMZ046-743>745-231500-
SOUTHERN LAKE MICHIGAN

STATION/POSITION TIME  TEMP WIND        PRES
                       AIR  DIR/SP/G
                 (UTC) (F)  (DEG/KT/KT) (MB)

$$

INZ004-005-014>016-021>024-231500-
NORTH CENTRAL INDIANA

CITY           SKY/WX    TMP DP  RH WIND       PRES   REMARKS
ELKHART        MOSUNNY   54  48  82 CALM      30.36R
GOSHEN         SUNNY    N/A N/A N/A S3        30.35R
LOGANSPORT +   SUNNY     54  46  76 CALM      30.37R
PERU/GRISSOM   SUNNY     56  53  91 SE2       30.36R
ROCHESTER +    SUNNY     59  50  72 S3        30.36R
SOUTH BEND     SUNNY     55  47  74 SW6       30.36S
WARSAW +       SUNNY     54  50  87 CALM      30.36R

$$

INZ006>009-017-018-025>027-231500-
NORTHEAST INDIANA

CITY           SKY/WX    TMP DP  RH WIND       PRES   REMARKS
ANGOLA *+      SUNNY     55  48  76 CALM      30.35R
AUBURN +       SUNNY     55  45  67 CALM      30.37R
FORT WAYNE     SUNNY     55  49  80 CALM      30.37R
HUNTINGTON +   SUNNY     55  50  86 CALM      30.36R

$$

INZ028-029-035-036-043>045-051>053-231500-
WEST CENTRAL INDIANA

CITY           SKY/WX    TMP DP  RH WIND       PRES   REMARKS
GREENCASTLE +  SUNNY     55  50  82 CALM      30.35R
LAFAYETTE      SUNNY     54  49  83 CALM      30.35S
TERRE HAUTE    SUNNY     56  49  77 CALM      30.35R

$$

INZ030>032-037>040-046>048-054>057-064-065-231500-
CENTRAL INDIANA

CITY           SKY/WX    TMP DP  RH WIND       PRES   REMARKS
ANDERSON       SUNNY     55  50  82 CALM      30.37R
CP ATTERBURY + SUNNY     54  48  82 CALM      30.36S
COLUMBUS       SUNNY     54  48  82 CALM      30.36R
FRANKFORT +    SUNNY     55  51  84 CALM      30.36R
GREENWOOD *+   SUNNY     57  48  72 CALM      30.37R
INDIANAPOLIS   SUNNY     56  46  69 CALM      30.36R
-EAGLE CREEK   SUNNY     57  46  66 CALM      30.35R
KOKOMO *+      SUNNY     54  48  82 CALM      30.36R
MARION +       SUNNY     55  48  78 CALM      30.37R
MT COMFORT *+  SUNNY     55  46  71 CALM      30.36R
SHELBYVILLE    SUNNY     58  47  66 CALM      30.36R
ZIONSVILLE +   SUNNY     56  48  75 CALM      30.36R

$$

INZ033-034-041-042-049-050-058-059-231500-
EAST CENTRAL INDIANA

CITY           SKY/WX    TMP DP  RH WIND       PRES   REMARKS
MUNCIE         SUNNY     55  48  77 CALM      30.36R

$$

INZ060-061-067>069-081>083-085>088-231500-
SOUTHWEST INDIANA

CITY           SKY/WX    TMP DP  RH WIND       PRES   REMARKS
EVANSVILLE     SUNNY     57  48  72 E6        30.33R
WASHINGTON +   SUNNY     56  50  79 E3        30.34R

$$

INZ062-063-066-070>080-084-089>092-231500-
SOUTH CENTRAL AND SOUTHEAST INDIANA

CITY           SKY/WX    TMP DP  RH WIND       PRES   REMARKS
BLOOMINGTON    SUNNY     57  45  64 E5        30.35R
NORTH VERNON + SUNNY     55  48  76 CALM      30.36

$$




USA.gov is the U.S. government's official web portal to all federal, state and local government web resources and services.